This is the latest recevied weather packets stored in our database for station/object K4DNM. If no packets are shown the sender has not sent any weather packets the latest 10 day(s).
| Time | Temp. | Humidity | Pressure | Rain* | Wind** | Luminosity | Snow |
|---|---|---|---|---|---|---|---|
| 1778163390 | 20° C | 100% | 1008.5 hPa | 0 mm | - | 53 W/m² | - |
| 1778163090 | 20° C | 100% | 1008.5 hPa | 0 mm | - | 49 W/m² | - |
| 1778162850 | 20° C | 100% | 1008.5 hPa | 0 mm | - | 50 W/m² | - |
| 1778162489 | 20° C | 100% | 1008.7 hPa | 0 mm | - | 61 W/m² | - |
| 1778162174 | 20° C | 100% | 1009 hPa | 0 mm | - | 54 W/m² | - |
| 1778161876 | 20° C | 100% | 1008.8 hPa | 0 mm | - | 42 W/m² | - |
| 1778161577 | 20° C | 100% | 1008.7 hPa | 0 mm | - | 48 W/m² | - |
| 1778161276 | 20° C | 100% | 1008.5 hPa | 0 mm | - | 49 W/m² | - |
| 1778160977 | 20° C | 100% | 1008.4 hPa | 0 mm | - | 69 W/m² | - |
| 1778160675 | 20° C | 100% | 1008.6 hPa | 0 mm | - | 41 W/m² | - |
| 1778160374 | 20° C | 100% | 1008.6 hPa | 0 mm | - | 55 W/m² | - |
| 1778160074 | 20° C | 100% | 1008.5 hPa | 0 mm | - | 61 W/m² | - |
| 1778159774 | 20° C | 100% | 1008.6 hPa | 0 mm | - | 65 W/m² | - |
| 1778159474 | 19.44° C | 100% | 1008.5 hPa | 0 mm | - | 49 W/m² | - |
| 1778159175 | 19.44° C | 100% | 1008.3 hPa | 0 mm | - | 32 W/m² | - |
| 1778158877 | 19.44° C | 100% | 1008.4 hPa | 0 mm | - | 26 W/m² | - |
| 1778158632 | 19.44° C | 99% | 1008.5 hPa | 0 mm | - | 23 W/m² | - |
| 1778158575 | 19.44° C | 99% | 1008.6 hPa | 0 mm | - | 27 W/m² | - |
| 1778158463 | 19.44° C | 99% | 1008.7 hPa | 0 mm | - | 35 W/m² | - |
| 1778158409 | 19.44° C | 99% | 1008.7 hPa | 0 mm | - | 38 W/m² | - |
| 1778158354 | 19.44° C | 99% | 1008.8 hPa | 0 mm | - | 33 W/m² | - |
| 1778157031 | 19.44° C | 99% | 1008.9 hPa | 0 mm | - | 27 W/m² | - |
| 1778156732 | 19.44° C | 99% | 1008.9 hPa | 0 mm | - | 22 W/m² | - |
| 1778156432 | 19.44° C | 99% | 1009 hPa | 0 mm | - | 23 W/m² | - |
| 1778156192 | 19.44° C | 99% | 1009 hPa | 0 mm | - | 27 W/m² | - |
* Rain latest hour (hover to see other rain measurements)
** Current wind speed in m/s (hover to see current wind gust speed)